[[{"header":{"parameterUnit":"m.s-1","parameterCategory":1,"la1":30.2991,"la2":30.254,"lo1":-89.0895,"lo2":-89.0444,"dy":0.0017,"dx":0.0017,"nx":28,"ny":28,"refTime":"2024-04-15T21:00:00:Z","depth":0,"parameterNumber":2,"parameterNumberName":"U-component_of_WINDS"},"data":[0,0,0,0,0,0,0,0,0,0,0,0,0,0,0,0,0,0,0,0,0,0,0,0,0,0,0,0,0,0,0,0,0,0,0,0,0,0,0,0,0,0,0,0,0,0,0,0,0,0,0,0,0,0,0,0,0,0,-3.4417,-3.4417,0,-3.4412,-3.4412,-3.4412,-3.4368,-3.4367,-3.4366,-3.4365,-3.4361,-3.4362,-3.4363,0,0,0,0,0,0,0,0,0,0,0,0,0,-3.439,-3.439,-3.4417,-3.4417,-3.4417,-3.4412,-3.4412,-3.4412,-3.4368,-3.4367,-3.4366,-3.4365,-3.4361,-3.4362,-3.4363,0,0,0,0,0,0,0,0,0,0,0,0,0,-3.4395,-3.4391,-3.4417,-3.4394,-3.4392,-3.4412,-3.4412,-3.4412,-3.4369,-3.4367,-3.4365,-3.4364,-3.436,-3.4362,-3.4363,-3.4404,0,0,-3.4367,-3.4368,0,0,0,0,0,0,0,0,-3.4395,-3.4396,-3.4398,-3.4396,-3.4394,-3.4389,-3.4401,-3.4409,-3.4369,-3.4378,-3.4365,-3.4363,-3.4372,-3.4372,-3.4375,-3.4403,-3.4403,-3.4367,-3.4368,-3.4369,-3.4369,0,0,0,0,0,0,0,-3.4394,-3.4396,-3.4415,-3.4398,-3.4395,-3.4385,-3.4384,-3.4402,-3.4384,-3.4377,-3.4374,-3.4374,-3.437,-3.4373,-3.4374,-3.4403,-3.4367,-3.4368,-3.4369,-3.437,-3.4464,-3.4466,0,0,0,0,0,0,-3.4397,-3.4396,-3.4415,-3.4415,-3.439,-3.4387,-3.4386,-3.4392,-3.4384,-3.4381,-3.4375,-3.4372,-3.4372,-3.4373,-3.4374,-3.442,-3.4369,-3.437,-3.4371,-3.4463,-3.4465,-3.4467,0,0,0,0,0,0,-3.4396,-3.4399,-3.4415,-3.4404,-3.4406,-3.4389,-3.4397,-3.4393,-3.4396,-3.4382,-3.4379,-3.4381,-3.4371,-3.4372,-3.4396,-3.4419,-3.437,-3.4372,-3.4461,-3.4463,-3.4466,-3.4513,0,0,0,0,0,0,-3.4396,-3.4399,-3.4414,-3.4405,-3.4406,-3.4437,-3.4398,-3.4394,-3.4398,-3.4394,-3.4387,-3.4385,-3.4369,-3.4395,-3.4398,-3.442,-3.4373,-3.4459,-3.4462,-3.4465,-3.4509,-3.4516,-3.4523,0,0,0,0,0,-3.4395,-3.4428,-3.4415,-3.4418,-3.4425,-3.4439,-3.444,-3.4421,-3.44,-3.4415,-3.4406,-3.4385,-3.4417,-3.4397,-3.4401,-3.4424,-3.4457,-3.4461,-3.4465,-3.4506,-3.4515,-3.4523,0,0,0,0,0,0,-3.444,-3.4426,-3.4412,-3.4443,-3.4442,-3.4431,-3.4449,-3.4432,-3.4437,-3.4433,-3.441,-3.4409,-3.4437,-3.4433,-3.4412,-3.4462,-3.4433,-3.4438,-3.4463,-3.4472,-3.4479,-3.4478,-3.4374,0,0,0,0,0,-3.4454,-3.4466,-3.4454,-3.4482,-3.4482,-3.4466,-3.4472,-3.4458,-3.4456,-3.4456,-3.4449,-3.4449,-3.4458,-3.4465,-3.4474,-3.4509,-3.4506,-3.4527,-3.4534,-3.4539,-3.4543,-3.456,-3.4569,-3.4479,-3.4479,-3.4479,0,0,-3.4482,-3.4476,-3.4485,-3.4491,-3.4489,-3.4502,-3.4466,-3.4482,-3.4491,-3.4458,-3.448,-3.4476,-3.4474,-3.4503,-3.4516,-3.4501,-3.4567,-3.4544,-3.4549,-3.4549,-3.4565,-3.4573,-3.4581,-3.4482,-3.4481,-3.4481,0,0,-3.4539,-3.4537,-3.4559,-3.4558,-3.4555,-3.4544,-3.455,-3.4542,-3.4537,-3.4559,-3.4534,-3.4546,-3.4563,-3.4563,-3.4565,-3.4623,-3.4603,-3.4627,-3.4662,-3.4679,-3.4686,-3.4692,-3.4711,-3.4719,-3.4631,-3.4631,-3.4631,0,-3.4574,-3.4593,-3.4573,-3.459,-3.4593,-3.4564,-3.4587,-3.4587,-3.4587,-3.459,-3.4574,-3.4595,-3.4592,-3.462,-3.4634,-3.4638,-3.4643,-3.4626,-3.4687,-3.4693,-3.4698,-3.4716,-3.4724,-3.4634,-3.4633,-3.4633,-3.4633,0,-3.4636,-3.4649,-3.4668,-3.4668,-3.4674,-3.4694,-3.4677,-3.4685,-3.4671,-3.4662,-3.4685,-3.468,-3.4686,-3.4693,-3.468,-3.4719,-3.471,-3.4691,-3.4661,-3.471,-3.4726,-3.4733,-3.4638,-3.4637,-3.4636,-3.4635,0,0,-3.472,-3.4709,-3.4716,-3.4716,-3.4711,-3.4721,-3.474,-3.4746,-3.4752,-3.4755,-3.4769,-3.4785,-3.4767,-3.4769,-3.4756,-3.4771,-3.4816,-3.475,-3.4749,-3.4761,-3.4858,-3.4871,-3.4879,-3.4803,-3.4805,-3.4806,-3.4857,0,-3.4773,-3.4804,-3.4787,-3.482,-3.4831,-3.4804,-3.4821,-3.482,-3.4812,-3.4821,-3.4813,-3.4824,-3.48,-3.4801,-3.4816,-3.4807,-3.4835,-3.4804,-3.4816,-3.4816,-3.4815,-3.4888,-3.4902,-3.495,-3.4864,-3.4865,-3.4866,0,-3.484,-3.4843,-3.4877,-3.4869,-3.4874,-3.4889,-3.4892,-3.4902,-3.49,-3.4893,-3.4897,-3.4879,-3.4897,-3.4869,-3.4893,-3.4873,-3.4877,-3.4874,-3.4876,-3.4874,-3.4842,-3.4887,-3.4966,-3.4972,-3.4876,-3.4875,-3.4874,0,-3.4895,-3.4909,-3.4931,-3.4931,-3.4924,-3.4934,-3.4932,-3.4929,-3.4933,-3.4937,-3.4939,-3.4946,-3.4949,-3.4954,-3.494,-3.4921,-3.4965,-3.4936,-3.4959,-3.496,-3.4968,-3.4967,-3.5047,-3.4975,-3.4975,-3.4975,-3.4974,0,-3.4956,-3.4977,-3.4955,-3.4969,-3.4992,-3.4973,-3.4996,-3.4991,-3.4988,-3.5,-3.4978,-3.4989,-3.497,-3.498,-3.4969,-3.499,-3.4992,-3.4986,-3.4983,-3.4987,-3.4987,-3.4988,-3.4983,-3.4977,-3.4976,-3.4976,-3.4975,0,-3.5021,-3.5008,-3.5029,-3.502,-3.5018,-3.5035,-3.5027,-3.5039,-3.5031,-3.5046,-3.5048,-3.5035,-3.5045,-3.5031,-3.504,-3.5033,-3.5061,-3.5053,-3.5061,-3.5058,-3.5081,-3.5078,-3.5162,-3.5171,-3.5095,-3.5096,-3.5097,0,-3.5059,-3.5075,-3.5067,-3.5073,-3.5072,-3.5082,-3.5086,-3.5068,-3.5074,-3.5073,-3.5085,-3.5093,-3.5099,-3.5116,-3.5108,-3.5114,-3.5106,-3.5135,-3.5106,-3.511,-3.5104,-3.5102,-3.5103,-3.514,-3.514,-3.5141,-3.5142,0,-3.5129,-3.5121,-3.5128,-3.5132,-3.5138,-3.5141,-3.5142,-3.5148,-3.513,-3.5137,-3.5147,-3.5151,-3.516,-3.5168,-3.5173,-3.517,-3.5153,-3.5151,-3.5156,-3.516,-3.5163,-3.516,-3.5074,-3.5149,-3.5148,-3.5148,-3.5147,-3.5147,-3.518,-3.5192,-3.5188,-3.5196,-3.5196,-3.5197,-3.5207,-3.52,-3.5208,-3.5213,-3.5203,-3.5215,-3.5213,-3.5217,-3.5217,-3.5226,-3.5213,-3.5222,-3.5223,-3.5225,-3.5228,-3.5163,-3.5227,-3.5227,-3.5227,-3.5227,-3.5226,0,-3.5246,-3.5243,-3.525,-3.5252,-3.5259,-3.5242,-3.5243,-3.5249,-3.526,-3.5259,-3.5265,-3.5276,-3.5284,-3.5276,-3.5282,-3.5291,-3.5284,-3.5294,-3.5292,-3.5291,-3.524,-3.5233,-3.53,-3.53,-3.53,-3.53,-3.53,-3.53,-3.5281,-3.53,-3.5293,-3.5311,-3.5307,-3.5318,-3.532,-3.5321,-3.5321,-3.5334,-3.534,-3.5335,-3.5331,-3.5337,-3.5343,-3.5341,-3.5344,-3.5356,-3.5351,-3.5302,-3.5295,-3.5288,-3.5282,-3.5357,-3.5357,-3.5401,-3.5401,-3.5402]},{"header":{"parameterUnit":"m.s-1","parameterCategory":1,"la1":30.2991,"la2":30.254,"lo1":-89.0895,"lo2":-89.0444,"dy":0.0017,"dx":0.0017,"nx":28,"ny":28,"refTime":"2024-04-15T21:00:00:Z","depth":0,"parameterNumber":3,"parameterNumberName":"V-component_of_WINDS"},"data":[0,0,0,0,0,0,0,0,0,0,0,0,0,0,0,0,0,0,0,0,0,0,0,0,0,0,0,0,0,0,0,0,0,0,0,0,0,0,0,0,0,0,0,0,0,0,0,0,0,0,0,0,0,0,0,0,0,0,3.3412,3.3413,0,3.349,3.3491,3.3492,3.3502,3.3501,3.35,3.35,3.3575,3.3577,3.358,0,0,0,0,0,0,0,0,0,0,0,0,0,3.3268,3.3271,3.3412,3.3413,3.3414,3.349,3.3491,3.3492,3.3502,3.3501,3.35,3.3499,3.3574,3.3577,3.358,0,0,0,0,0,0,0,0,0,0,0,0,0,3.3337,3.3272,3.3412,3.3428,3.343,3.349,3.3491,3.3492,3.3502,3.3501,3.35,3.3499,3.3573,3.3577,3.3581,3.3627,0,0,3.3593,3.3595,0,0,0,0,0,0,0,0,3.3333,3.3342,3.3425,3.3427,3.343,3.3485,3.3468,3.3537,3.3502,3.3475,3.35,3.3498,3.3545,3.3552,3.3568,3.3631,3.3634,3.3593,3.3596,3.3597,3.3598,0,0,0,0,0,0,0,3.3328,3.3339,3.3443,3.3426,3.3429,3.343,3.3439,3.3481,3.3515,3.3477,3.3478,3.3487,3.3546,3.3565,3.357,3.3635,3.3593,3.3597,3.3599,3.3601,3.3742,3.3744,0,0,0,0,0,0,3.3321,3.3335,3.344,3.3445,3.3378,3.3434,3.3444,3.3468,3.3515,3.3521,3.3488,3.3487,3.3558,3.3566,3.3573,3.3633,3.3597,3.3601,3.3603,3.3741,3.3743,3.3744,0,0,0,0,0,0,3.3318,3.333,3.3437,3.339,3.3404,3.3438,3.3465,3.347,3.3489,3.3523,3.3529,3.3501,3.3558,3.3567,3.3615,3.3636,3.3603,3.3607,3.374,3.3742,3.3744,3.3752,0,0,0,0,0,0,3.3314,3.3329,3.3348,3.3391,3.3406,3.3478,3.3467,3.3473,3.3496,3.3496,3.3536,3.3542,3.3558,3.3609,3.3619,3.3641,3.361,3.3738,3.374,3.3743,3.375,3.3754,3.3758,0,0,0,0,0,3.3308,3.3345,3.3349,3.3361,3.3431,3.3479,3.3488,3.3507,3.3498,3.3517,3.3539,3.3541,3.3632,3.3613,3.3625,3.3648,3.3737,3.374,3.3743,3.3748,3.3753,3.3757,0,0,0,0,0,0,3.3302,3.3351,3.3355,3.3407,3.344,3.3481,3.3505,3.3511,3.3545,3.3543,3.3563,3.3572,3.362,3.3638,3.3617,3.3697,3.3683,3.3689,3.3683,3.3688,3.3692,3.3687,3.3613,0,0,0,0,0,3.3307,3.3343,3.3384,3.3426,3.3442,3.3471,3.3493,3.3505,3.3538,3.3551,3.3577,3.3608,3.3644,3.3667,3.3702,3.3753,3.3762,3.3774,3.3778,3.3781,3.3786,3.3816,3.3823,3.3754,3.3754,3.3754,0,0,3.3316,3.3348,3.3369,3.3426,3.3452,3.3489,3.3482,3.3521,3.3549,3.3556,3.3604,3.3624,3.366,3.371,3.3734,3.3727,3.3807,3.3785,3.3787,3.379,3.382,3.3827,3.3832,3.3756,3.3756,3.3756,0,0,3.3354,3.3381,3.342,3.3448,3.3488,3.3508,3.3517,3.3559,3.3573,3.3622,3.3629,3.3661,3.3722,3.3749,3.377,3.382,3.3823,3.383,3.385,3.388,3.3885,3.389,3.391,3.3917,3.3835,3.3835,3.3835,0,3.336,3.3418,3.3439,3.3479,3.3504,3.3515,3.3555,3.358,3.3629,3.3646,3.3638,3.3717,3.3742,3.3799,3.3812,3.3828,3.384,3.3826,3.3883,3.3888,3.3893,3.3912,3.3919,3.3836,3.3835,3.3835,3.3835,0,3.3426,3.3465,3.3492,3.3543,3.357,3.361,3.3636,3.3661,3.3671,3.3691,3.3741,3.3772,3.3814,3.3828,3.3837,3.3888,3.3883,3.3879,3.3866,3.39,3.3919,3.3926,3.3837,3.3836,3.3836,3.3836,0,0,3.346,3.3524,3.3533,3.3558,3.3604,3.3635,3.3675,3.3719,3.3741,3.3775,3.381,3.3862,3.386,3.3884,3.3896,3.3921,3.3962,3.3915,3.3916,3.3924,3.4022,3.4026,3.4034,3.3964,3.3966,3.3967,3.402,0,3.3505,3.3579,3.36,3.3663,3.3701,3.3713,3.3748,3.378,3.38,3.3835,3.3856,3.3894,3.3887,3.3902,3.3928,3.3952,3.3982,3.3948,3.3997,3.3999,3.3989,3.4044,3.4047,3.4096,3.4027,3.4028,3.4029,0,3.3566,3.3605,3.3672,3.3716,3.3733,3.3765,3.3808,3.384,3.3877,3.389,3.3919,3.3929,3.3971,3.3955,3.4014,3.3991,3.4012,3.4027,3.4029,3.4035,3.4017,3.4053,3.4112,3.412,3.404,3.4039,3.4038,0,3.3588,3.3655,3.3705,3.3725,3.3778,3.38,3.3823,3.3859,3.3884,3.3921,3.3938,3.3978,3.4001,3.4032,3.4053,3.4039,3.4111,3.4096,3.4123,3.4123,3.4139,3.4138,3.4204,3.415,3.415,3.4149,3.4149,0,3.3636,3.3677,3.3716,3.3747,3.3794,3.3817,3.3862,3.3885,3.3917,3.3952,3.3964,3.3996,3.4021,3.4057,3.4073,3.4121,3.413,3.4142,3.4146,3.4142,3.4141,3.4157,3.4155,3.4151,3.4151,3.4151,3.415,0,3.3668,3.3696,3.3751,3.3798,3.381,3.3843,3.3882,3.3912,3.3933,3.3977,3.3989,3.4022,3.4065,3.4089,3.4141,3.4153,3.4207,3.4208,3.4195,3.4197,3.4224,3.4222,3.4304,3.4317,3.4253,3.4253,3.4254,0,3.3698,3.3731,3.3781,3.3807,3.3831,3.3871,3.3898,3.3922,3.395,3.3996,3.4021,3.4065,3.4102,3.417,3.4198,3.4239,3.4242,3.4268,3.4248,3.4244,3.4245,3.4244,3.4248,3.4272,3.4273,3.4273,3.4273,0,3.3749,3.3762,3.3802,3.3847,3.388,3.3916,3.3951,3.3971,3.4001,3.4031,3.4077,3.4106,3.4162,3.4206,3.425,3.4272,3.4278,3.428,3.4289,3.4285,3.4278,3.4284,3.4206,3.4278,3.4277,3.4277,3.4277,3.4277,3.3782,3.3813,3.3855,3.3899,3.3929,3.3963,3.3994,3.402,3.4059,3.4108,3.412,3.4168,3.4205,3.4266,3.4289,3.4327,3.4322,3.4334,3.4338,3.4341,3.4343,3.4271,3.4335,3.4335,3.4334,3.4334,3.4334,0,3.3836,3.3864,3.3905,3.3956,3.3991,3.3995,3.4036,3.4064,3.4108,3.4143,3.418,3.4233,3.4276,3.4308,3.4353,3.4377,3.4381,3.4388,3.4387,3.4393,3.4344,3.4333,3.4384,3.4384,3.4384,3.4384,3.4384,3.4384,3.3868,3.3921,3.3939,3.4007,3.4034,3.4083,3.4106,3.4137,3.4166,3.4226,3.4263,3.4284,3.4319,3.4366,3.4406,3.4414,3.4431,3.4438,3.4446,3.4401,3.4395,3.439,3.438,3.444,3.4441,3.4492,3.4493,3.4493]}]]